EW4885 Weather Reports


time (UTC)temp
C
wind
direction
speed
KPH
gust
KPH
rain 1hr
cm
rain 24hr
cm
rain mn
cm
humidity
%
barometer
mb
20260505034544 11 103 0.0 0.0 0.08 2.11 0.76 96 1009.1
20260505033042 11 103 0.0 0.0 0.08 2.11 0.71 96 1009.3
20260505031551 11 69 0.0 0.0 0.15 2.11 0.71 96 1009.5
20260505030042 11 69 0.0 0.0 0.20 2.08 0.71 96 1009.4
20260505024540 11 69 0.0 0.0 0.18 2.03 0.69 96 1009.5
20260505023039 11 76 0.0 0.0 0.18 2.03 0.66 96 1009.6
20260505021537 11 92 0.0 0.0 0.13 1.93 0.58 96 1009.9
20260505020034 11 91 0.0 0.0 0.08 1.88 0.51 96 1010.1
20260505014533 11 116 0.0 0.0 0.10 1.85 0.51 96 1010.4
20260505013043 11 116 0.0 0.0 0.13 1.83 0.48 95 1010.4
20260505011532 11 116 0.0 0.0 0.15 1.83 0.46 96 1010.3
20260505010034 11 116 0.0 0.0 0.18 1.80 0.43 95 1010.4
20260505004530 11 116 0.0 0.0 0.20 1.75 0.41 95 1010.5
20260505003032 11 136 0.0 0.0 0.18 1.70 0.33 95 1010.6
20260505001527 11 152 0.0 0.0 0.23 1.65 0.30 95 1010.9
20260505000028 11 148 0.0 3.2 0.23 1.63 0.25 95 1010.9
20260504234524 11 155 3.2 6.4 0.18 1.55 0.20 95 1011.1
20260504233022 11 139 3.2 11.3 0.15 1.52 0.15 95 1011.2
20260504231520 11 144 3.2 9.7 0.08 1.42 0.08 95 1011.2
20260504230020 11 119 4.8 9.7 0.03 1.37 0.03 95 1011.3
20260504224521 11 168 3.2 9.7 0.03 1.37 0.03 95 1011.2
20260504223019 11 142 3.2 8.0 0.00 1.37 0.00 96 1011.3
20260504221517 11 154 1.6 4.8 0.00 1.37 0.00 95 1011.3
20260504220020 11 141 1.6 4.8 0.00 1.37 0.00 95 1011.3
20260504214521 11 69 0.0 3.2 0.00 1.37 1.37 95 1011.3
20260504213014 11 66 1.6 3.2 0.00 1.37 1.37 95 1011.3
20260504211524 11 66 0.0 0.0 0.00 1.37 1.37 95 1011.4
20260504210014 11 68 1.6 6.4 0.00 1.37 1.37 94 1011.1
20260504204517 11 111 1.6 4.8 0.00 1.37 1.37 94 1011.2
20260504203012 11 158 0.0 4.8 0.00 1.37 1.37 94 1011.4
20260504201510 11 128 1.6 4.8 0.00 1.37 1.37 94 1011.5
20260504200010 11 202 0.0 0.0 0.00 1.37 1.37 94 1011.4
20260504194510 11 202 0.0 1.6 0.00 1.37 1.37 92 1011.5
20260504193044 12 202 0.0 3.2 0.00 1.37 1.37 92 1011.4
20260504191554 12 202 1.6 6.4 0.00 1.37 1.37 92 1011.3
20260504190046 12 221 3.2 8.0 0.00 1.37 1.37 92 1011.4
20260504184557 12 199 3.2 6.4 0.00 1.37 1.37 92 1011.3
20260504183043 12 219 3.2 8.0 0.00 1.37 1.37 92 1011.4
20260504181541 12 208 4.8 9.7 0.03 1.37 1.37 92 1011.4
20260504180042 12 184 8.0 12.9 0.03 1.37 1.37 92 1011.6
20260504174540 12 152 4.8 11.3 0.03 1.37 1.37 92 1011.5
20260504173037 13 163 6.4 12.9 0.05 1.37 1.37 92 1011.7
20260504171535 13 150 8.0 17.7 0.03 1.35 1.35 91 1011.9
20260504081506 11 130 3.2 6.4 0.30 0.71 0.71 92 1014.5
20260504044536 13 196 3.2 12.9 0.00 0.05 0.00 72 1013.1
20260504043034 13 196 9.7 17.7 0.00 0.05 0.00 69 1013.1
20260504041533 13 190 6.4 12.9 0.00 0.05 0.00 67 1013.0
20260504040036 13 175 9.7 20.9 0.00 0.05 0.00 66 1013.0